Flag Weather past 2 weeks in Cuiabá, Mato Grosso, Brazil

Now
86 °F

Partly sunny.


Feels Like: 93 °F
Forecast: N/A
Wind: 5 mph from Southeast

Location: Cuiaba Aeroporto

Current Time: Nov 26, 2014 at 6:38:34 PM

Latest Report: Nov 26, 2014 at 6:00 PM


Visibility: N/A

Pressure: 29.77 "Hg

Humidity: 66%

Dew point: 73 °F

Location of CuiabáLocation

Historic Weather in Cuiabá — Graph

°F

Cuiabá temperature yesterday

Maximum temperature yesterday: 88 °F (at 3:00 PM)
Minimum temperature yesterday: 75 °F (at 4:00 AM)
Average temperature yesterday: 80 °F

Past Weeks' High & Low Weather Summary

 TemperatureHumidityPressure
High99 °F (Nov 18, 2:00 PM)100% (Nov 13, 7:00 AM)29.98 "Hg (Nov 13, 7:00 AM)
Low72 °F (Nov 22, 3:00 AM)25% (Nov 17, 2:00 PM)29.65 "Hg (Nov 11, 6:00 PM)
Average83 °F67%29.83 "Hg
* Reported Nov 11 5:00 PM — Nov 26 5:00 PM, Cuiabá, Weather by CustomWeather, © 2014

Note: Actual official high and low records may vary slightly from our data, if they occured in-between our weather recording intervals... More about our weather records

Advertising

Cuiabá weather history for previous 24 hours

 ConditionsComfort  
Time TempWeatherWind HumidityBarometerVisibility
5:00 PM
Nov 26
88 °FBroken clouds.6 mph59%29.74 "HgN/A
4:00 PM88 °FBroken clouds.5 mph59%29.74 "HgN/A
3:00 PM88 °FBroken clouds.9 mph59%29.77 "HgN/A
2:00 PM88 °FBroken clouds.10 mph55%29.80 "HgN/A
1:00 PM84 °FBroken clouds.10 mph74%29.83 "HgN/A
12:00 PM81 °FBroken clouds.7 mph84%29.86 "HgN/A
11:00 AM81 °FRain. Partly sunny.10 mph79%29.89 "Hg1 mi
10:00 AM82 °FScattered showers. Broken clouds.7 mph74%29.86 "HgN/A
9:00 AM82 °FBroken clouds.9 mph74%29.86 "HgN/A
8:00 AM82 °FScattered clouds.7 mph74%29.83 "HgN/A
7:00 AM79 °FScattered clouds.2 mph84%29.80 "HgN/A
6:00 AM79 °FPassing clouds.2 mph84%29.80 "HgN/A
5:00 AM77 °FClear.No wind79%29.80 "Hg10 mi
4:00 AM77 °FClear.2 mph83%29.83 "Hg10 mi
3:00 AM77 °FClear.3 mph83%29.83 "Hg10 mi
2:00 AM77 °FClear.3 mph83%29.83 "Hg10 mi
1:00 AM79 °FClear.6 mph84%29.86 "Hg10 mi
12:00 AM81 °FClear.7 mph74%29.83 "Hg10 mi
11:00 PM
Nov 25
81 °FClear.3 mph79%29.83 "Hg10 mi
10:00 PM81 °FClear.3 mph79%29.83 "Hg10 mi
9:00 PM82 °FPassing clouds.6 mph70%29.80 "HgN/A
8:00 PM81 °FPassing clouds.6 mph79%29.74 "HgN/A
7:00 PM84 °FPassing clouds.8 mph62%29.74 "HgN/A
6:00 PM88 °FPassing clouds.14 mph55%29.74 "HgN/A
Weather by CustomWeather, © 2014

See weather overviewHow to use our weather pages